Terminal Aerodrome Forecast
Issued by NWS Billings, MT

Home | Current Version | Previous Version | Graphics & Text | Print | Product List | Glossary On
Versions: 1 2 3 4 5 6 7 8 9 10 11 12 13 14 15 16 17 18 19 20 21 22 23 24
753
FTUS45 KBYZ 090537
TAFMLS
TAF
KMLS 090537Z 0906/1006 28010KT P6SM SCT250 WS020/32040KT
     FM091100 29015G24KT P6SM FEW250=

USA.gov is the U.S. government's official web portal to all federal, state and local government web resources and services.